• In Uzbekistan
  • List of Countries
  • For 7 days
  • Water Temperature
  • Satellite Maps
  • Weather Map
  • Weather Widgets
  • user-avatar
    Login

    Hourly Weather Saurimo

    Today, 18 August, Friday

    Time Temperature Precipitation Wind Pressure Humidity
    00:00 +23°C° 0 mm 1 mps 669 mmHg 19%
    01:00 +22°C° 0 mm 1 mps 669 mmHg 24%
    02:00 +21°C° 0 mm 1 mps 669 mmHg 25%
    03:00 +20°C° 0 mm 1 mps 669 mmHg 26%
    04:00 +20°C° 0 mm 1 mps 669 mmHg 28%
    05:00 +19°C° 0 mm 0 mps 669 mmHg 26%
    06:00 +20°C° 0 mm 0 mps 670 mmHg 25%
    07:00 +24°C° 0 mm 1 mps 671 mmHg 21%
    08:00 +28°C° 0 mm 1 mps 672 mmHg 19%
    09:00 +32°C° 0 mm 1 mps 672 mmHg 16%
    10:00 +36°C° 0 mm 1 mps 673 mmHg 13%
    11:00 +37°C° 0 mm 1 mps 672 mmHg 12%
    12:00 +39°C° 0 mm 1 mps 672 mmHg 10%
    13:00 +40°C° 0 mm 1 mps 671 mmHg 9%
    14:00 +39°C° 0 mm 1 mps 670 mmHg 9%
    15:00 +37°C° 0 mm 1 mps 670 mmHg 9%
    16:00 +37°C° 0 mm 1 mps 669 mmHg 9%
    17:00 +34°C° 0 mm 1 mps 669 mmHg 11%
    18:00 +31°C° 0 mm 1 mps 669 mmHg 13%
    19:00 +28°C° 0 mm 1 mps 669 mmHg 15%
    20:00 +27°C° 0 mm 1 mps 669 mmHg 17%
    21:00 +26°C° 0 mm 1 mps 669 mmHg 18%
    22:00 +25°C° 0 mm 1 mps 670 mmHg 19%
    23:00 +24°C° 0 mm 1 mps 670 mmHg 19%

    Tomorrow, 19 August, Saturday

    Time Temperature Precipitation Wind Pressure Humidity
    00:00 +24°C° 0 mm 1 mps 670 mmHg 19%
    01:00 +23°C° 0 mm 1 mps 669 mmHg 18%
    02:00 +22°C° 0 mm 1 mps 669 mmHg 18%
    03:00 +22°C° 0 mm 1 mps 669 mmHg 19%
    04:00 +21°C° 0 mm 1 mps 669 mmHg 19%
    05:00 +22°C° 0 mm 1 mps 670 mmHg 18%
    06:00 +23°C° 0 mm 2 mps 671 mmHg 17%
    07:00 +23°C° 0 mm 2 mps 671 mmHg 17%
    08:00 +27°C° 0 mm 2 mps 672 mmHg 14%
    09:00 +30°C° 0 mm 3 mps 673 mmHg 12%
    10:00 +35°C° 0 mm 3 mps 673 mmHg 10%
    11:00 +37°C° 0 mm 2 mps 673 mmHg 9%
    12:00 +39°C° 0 mm 2 mps 672 mmHg 9%
    13:00 +41°C° 0 mm 1 mps 672 mmHg 9%
    14:00 +40°C° 0 mm 1 mps 671 mmHg 9%
    15:00 +39°C° 0 mm 1 mps 671 mmHg 10%
    16:00 +37°C° 0 mm 1 mps 670 mmHg 10%
    17:00 +34°C° 0 mm 1 mps 670 mmHg 13%
    18:00 +31°C° 0 mm 1 mps 670 mmHg 15%
    19:00 +28°C° 0 mm 1 mps 670 mmHg 18%
    20:00 +27°C° 0 mm 1 mps 670 mmHg 22%
    21:00 +26°C° 0 mm 1 mps 670 mmHg 27%
    22:00 +26°C° 0 mm 1 mps 670 mmHg 31%
    23:00 +25°C° 0 mm 1 mps 670 mmHg 36%

    Day after tomorrow, 20 August, Sunday

    Time Temperature Precipitation Wind Pressure Humidity
    00:00 +24°C° 0 mm 1 mps 670 mmHg 40%
    01:00 +24°C° 0 mm 1 mps 670 mmHg 45%
    02:00 +23°C° 0 mm 1 mps 670 mmHg 51%
    03:00 +23°C° 0 mm 1 mps 669 mmHg 56%
    04:00 +22°C° 0 mm 1 mps 669 mmHg 61%
    05:00 +23°C° 0 mm 1 mps 670 mmHg 58%
    06:00 +23°C° 0 mm 1 mps 671 mmHg 55%
    07:00 +24°C° 0 mm 1 mps 672 mmHg 52%
    08:00 +28°C° 0 mm 1 mps 673 mmHg 43%
    09:00 +31°C° 0 mm 0 mps 674 mmHg 35%
    10:00 +35°C° 0 mm 0 mps 675 mmHg 26%
    11:00 +36°C° 0 mm 1 mps 674 mmHg 26%
    12:00 +35°C° 0 mm 1 mps 672 mmHg 26%
    13:00 +33°C° 0 mm 1 mps 671 mmHg 26%
    14:00 +34°C° 0 mm 1 mps 671 mmHg 25%
    15:00 +34°C° 0 mm 1 mps 671 mmHg 23%
    16:00 +35°C° 0 mm 1 mps 670 mmHg 22%
    17:00 +33°C° 0 mm 1 mps 670 mmHg 24%
    18:00 +31°C° 0 mm 1 mps 671 mmHg 26%
    19:00 +30°C° 0 mm 1 mps 671 mmHg 28%
    20:00 +29°C° 0 mm 1 mps 671 mmHg 29%
    21:00 +29°C° 0 mm 1 mps 671 mmHg 30%
    22:00 +28°C° 0 mm 1 mps 671 mmHg 31%
    23:00 +27°C° 0 mm 1 mps 671 mmHg 33%

    21 August, Monday

    Time Temperature Precipitation Wind Pressure Humidity
    00:00 +26°C° 0 mm 1 mps 670 mmHg 34%
    01:00 +26°C° 0 mm 1 mps 670 mmHg 36%
    02:00 +25°C° 0 mm 1 mps 670 mmHg 35%
    03:00 +25°C° 0 mm 1 mps 670 mmHg 35%
    04:00 +25°C° 0 mm 1 mps 670 mmHg 34%
    05:00 +26°C° 0 mm 2 mps 670 mmHg 32%
    06:00 +26°C° 0 mm 2 mps 671 mmHg 30%
    07:00 +26°C° 0 mm 3 mps 672 mmHg 28%
    08:00 +29°C° 0 mm 3 mps 672 mmHg 24%
    09:00 +33°C° 0 mm 4 mps 673 mmHg 19%
    10:00 +36°C° 0 mm 4 mps 673 mmHg 15%
    11:00 +37°C° 0 mm 4 mps 673 mmHg 14%
    12:00 +38°C° 0 mm 3 mps 672 mmHg 13%
    13:00 +39°C° 0 mm 3 mps 671 mmHg 12%
    14:00 +39°C° 0 mm 3 mps 670 mmHg 12%
    15:00 +38°C° 0 mm 3 mps 670 mmHg 12%
    16:00 +38°C° 0 mm 3 mps 669 mmHg 12%
    17:00 +35°C° 0 mm 3 mps 669 mmHg 14%
    18:00 +32°C° 0 mm 2 mps 669 mmHg 16%
    19:00 +29°C° 0 mm 2 mps 670 mmHg 18%
    20:00 +28°C° 0 mm 2 mps 670 mmHg 19%
    21:00 +27°C° 0 mm 2 mps 670 mmHg 20%
    22:00 +26°C° 0 mm 2 mps 671 mmHg 21%
    23:00 +25°C° 0 mm 2 mps 670 mmHg 22%

    22 August, Tuesday

    Time Temperature Precipitation Wind Pressure Humidity
    00:00 +24°C° 0 mm 2 mps 670 mmHg 24%
    01:00 +24°C° 0 mm 2 mps 669 mmHg 25%
    02:00 +23°C° 0 mm 1 mps 669 mmHg 26%
    03:00 +22°C° 0 mm 1 mps 669 mmHg 27%
    04:00 +21°C° 0 mm 1 mps 669 mmHg 28%
    05:00 +22°C° 0 mm 1 mps 669 mmHg 27%
    06:00 +23°C° 0 mm 2 mps 670 mmHg 26%
    07:00 +23°C° 0 mm 2 mps 671 mmHg 24%
    08:00 +27°C° 0 mm 3 mps 671 mmHg 21%
    09:00 +30°C° 0 mm 3 mps 672 mmHg 18%
    10:00 +35°C° 0 mm 4 mps 673 mmHg 14%
    11:00 +36°C° 0 mm 3 mps 672 mmHg 13%
    12:00 +37°C° 0 mm 3 mps 671 mmHg 11%
    13:00 +39°C° 0 mm 2 mps 671 mmHg 10%
    14:00 +39°C° 0 mm 2 mps 670 mmHg 10%
    15:00 +38°C° 0 mm 2 mps 669 mmHg 9%
    16:00 +38°C° 0 mm 2 mps 669 mmHg 9%
    17:00 +35°C° 0 mm 2 mps 669 mmHg 11%
    18:00 +31°C° 0 mm 1 mps 669 mmHg 13%
    19:00 +28°C° 0 mm 1 mps 668 mmHg 15%
    20:00 +27°C° 0 mm 1 mps 669 mmHg 17%
    21:00 +26°C° 0 mm 1 mps 669 mmHg 18%
    22:00 +24°C° 0 mm 1 mps 669 mmHg 20%
    23:00 +24°C° 0 mm 1 mps 669 mmHg 21%

    23 August, Wednesday

    Time Temperature Precipitation Wind Pressure Humidity
    00:00 +21°C° 0 mm 0 mps 668 mmHg 23%
    01:00 +20°C° 0 mm 0 mps 668 mmHg 25%
    02:00 +20°C° 0 mm 0 mps 668 mmHg 26%
    03:00 +20°C° 0 mm 0 mps 668 mmHg 28%
    04:00 +19°C° 0 mm 0 mps 668 mmHg 30%
    05:00 +20°C° 0 mm 0 mps 669 mmHg 29%
    06:00 +21°C° 0 mm 0 mps 669 mmHg 28%
    07:00 +22°C° 0 mm 0 mps 670 mmHg 27%
    08:00 +28°C° 0 mm 1 mps 671 mmHg 24%
    09:00 +32°C° 0 mm 1 mps 671 mmHg 21%
    10:00 +36°C° 0 mm 1 mps 672 mmHg 18%
    11:00 +39°C° 0 mm 1 mps 671 mmHg 15%
    12:00 +40°C° 0 mm 1 mps 671 mmHg 12%
    13:00 +42°C° 0 mm 1 mps 670 mmHg 9%
    14:00 +41°C° 0 mm 1 mps 669 mmHg 9%
    15:00 +40°C° 0 mm 1 mps 669 mmHg 9%
    16:00 +39°C° 0 mm 1 mps 668 mmHg 9%
    17:00 +35°C° 0 mm 1 mps 668 mmHg 12%
    18:00 +32°C° 0 mm 1 mps 668 mmHg 14%
    19:00 +29°C° 0 mm 1 mps 668 mmHg 17%
    20:00 +28°C° 0 mm 1 mps 668 mmHg 21%
    21:00 +27°C° 0 mm 1 mps 668 mmHg 24%
    22:00 +26°C° 0 mm 1 mps 668 mmHg 28%
    23:00 +25°C° 0 mm 1 mps 668 mmHg 31%
    Show more